Overview Statistics Trail Chart Weather Telemetry Raw packets
 

This is the latest recevied weather packets stored in our database for station/object K7CTM. If no packets are shown the sender has not sent any weather packets the latest 10 day(s).

<< 109 110 111 112 113 114 >>
Time Temp. Humidity Pressure Rain* Wind** Luminosity Snow
1787786930 32.22° C 26% 1028.8 hPa 0 mm - 257 W/m² -
1787786625 31.67° C 25% 1028.9 hPa 0 mm - 247 W/m² -
1787786319 31.67° C 25% 1029 hPa 0 mm - 235 W/m² -
1787786016 32.22° C 24% 1028.9 hPa 0 mm - 363 W/m² -
1787785716 31.67° C 25% 1029.1 hPa 0 mm - 302 W/m² -
1787785411 32.22° C 24% 1029.1 hPa 0 mm - 392 W/m² -
1787785110 32.22° C 24% 1029.1 hPa 0 mm - 385 W/m² -
1787784806 32.22° C 24% 1029 hPa 0 mm - 396 W/m² -
1787784504 32.22° C 25% 1028.9 hPa 0 mm - 403 W/m² -
1787784199 31.67° C 25% 1029.2 hPa 0 mm - 393 W/m² -
1787783895 31.67° C 25% 1029.4 hPa 0 mm - 175 W/m² -
1787783591 32.22° C 24% 1029.4 hPa 0 mm - 432 W/m² -
1787783284 32.22° C 24% 1029.4 hPa 0 mm - 438 W/m² -
1787782981 32.22° C 24% 1029.6 hPa 0 mm - 451 W/m² -
1787782679 31.67° C 25% 1029.6 hPa 0 mm - 477 W/m² -
1787782375 32.22° C 25% 1029.7 hPa 0 mm - 498 W/m² -
1787782070 32.78° C 23% 1029.7 hPa 0 mm - 206 W/m² -
1787781766 32.78° C 24% 1029.6 hPa 0 mm - 550 W/m² -
1787781463 32.22° C 24% 1029.7 hPa 0 mm - 335 W/m² -
1787781163 32.78° C 24% 1029.7 hPa 0 mm - 440 W/m² -
1787780862 32.22° C 24% 1029.8 hPa 0 mm - 572 W/m² -
1787780561 32.22° C 25% 1029.7 hPa 0 mm - 571 W/m² -
1787780257 31.67° C 25% 1029.8 hPa 0 mm - 598 W/m² -
1787779953 31.67° C 25% 1029.9 hPa 0 mm - 617 W/m² -
1787779648 31.67° C 25% 1030 hPa 0 mm - 311 W/m² -

* Rain latest hour (hover to see other rain measurements)
** Current wind speed in m/s (hover to see current wind gust speed)